Miscellaneous Local Product
Issued by NWS North Platte, NE

Home | Current Version | Previous Version | Text Only | Print | Product List | Glossary On
Versions: 1 2 3 4 5 6 7 8 9 10 11 12 13 14 15 16 17 18 19 20 21 22 23 24 25 26 27 28 29 30 31 32 33 34 35 36 37 38 39 40 41 42 43 44 45 46 47 48 49 50
000
AXUS43 KLBF 182110
MISLBF


WESTERN AND NORTH CENTRAL NEBRASKA HOURLY WEATHER ROUNDUP
NATIONAL WEATHER SERVICE NORTH PLATTE NE
400 PM CDT FRI AUG 18 2017

NOTE: "FAIR" INDICATES FEW OR NO CLOUDS BELOW 12,000 FEET WITH NO
SIGNIFICANT WEATHER AND/OR OBSTRUCTIONS TO VISIBILITY.

NOTE: STATIONS NOT REPORTING VARIABLES SUCH AS SKY/WEATHER OR
PRESSURE ARE PROVIDED BY RAWS AND APRS NETWORKS AND ARE NOT UNDER
NATIONAL WEATHER SERVICE QUALITY CONTROL.

...OBSERVATIONS IN AND NEAR THE EASTERN PANHANDLE OF NEBRASKA...

CITY           SKY/WX    TMP DP  RH WIND       PRES   REMARKS
PINE RIDGE     SUNNY     87  46  24 N8        30.02F
GORDON         FAIR      85  47  26 N7        30.03F
CHADRON        SUNNY     89  38  16 NW6       30.02F
ALLIANCE       SUNNY     85  44  23 W10       30.07F
SIDNEY         SUNNY     88  38  17 W9        30.12F
CRESCENT LAKE    N/A     86  41  20 NW6G14      N/A
$$

...OBSERVATIONS IN NORTHERN NEBRASKA AND FAR SOUTHERN SOUTH DAKOTA...

CITY           SKY/WX    TMP DP  RH WIND       PRES   REMARKS
WINNER         FAIR      84  57  39 N8G17     29.97S
VALENTINE      SUNNY     87  48  25 N13       29.99F
THEDFORD       PTSUNNY   88  49  26 NW13G22   30.01S
AINSWORTH      SUNNY     81  59  47 N14       29.99S
O`NEILL        SUNNY     82  60  47 NW9       29.96R
ORD            SUNNY     86  55  34 NW12      29.93F
BROKEN BOW     SUNNY     90  47  22 NW13      29.98F
VALENTINE NWR    N/A     84  53  33 NW10        N/A
HALSEY           N/A     89  46  22 W9G16       N/A
BUTTE            N/A     80  57  44 N12G18      N/A
CHAMBERS         N/A     86  57  37 SW3         N/A
EWING            N/A     83  65  54 NW5         N/A
$$

...OBSERVATIONS IN SOUTHWEST NEBRASKA AND FAR NORTHEAST COLORADO...

CITY           SKY/WX    TMP DP  RH WIND       PRES   REMARKS
HOLYOKE        FAIR      88  43  20 SE3       30.09F
IMPERIAL       SUNNY     86  44  23 VRB5      30.06F
OGALLALA       SUNNY     87  46  24 CALM      30.05F
NORTH PLATTE   SUNNY     87  52  29 NW7       30.00F
MCCOOK         SUNNY     88  56  33 E9        30.01F
LEXINGTON      SUNNY     86  55  34 SW3       29.99F
STAPLETON        N/A     87  49  26 CALM        N/A
GOTHENBURG       N/A     89  46  22 N3          N/A
CALLAWAY         N/A     87  58  37 W8          N/A
$$

...OBSERVATIONS IN CENTRAL LINCOLN COUNTY AREA...

CITY           SKY/WX    TMP DP  RH WIND       PRES   REMARKS
N.P. AIRPORT   SUNNY     87  52  29 NW7       30.00F
N.P. SOUTHEAST   N/A     90  50  25 CALM        N/A
N.P. HILLCREST   N/A     87  45  22 NW7         N/A
$$

...SOME OBSERVATIONS FROM AROUND THE REGION...

CITY           SKY/WX    TMP DP  RH WIND       PRES   REMARKS
DENVER         MOSUNNY   86  38  18 NE10      30.16F
LIMON          SUNNY     84  43  23 NW7       30.18F
ASPEN          CLOUDY    79  33  19 MISG      30.35S
LARAMIE        SUNNY     78  32  18 NW8       30.28F
CASPER         SUNNY     84  33  16 W6        30.13F
CHEYENNE       SUNNY     84  34  16 VRB7      30.20F
SCOTTSBLUFF    SUNNY     88  38  17 N7        30.08F
GRAND ISLAND   SUNNY     87  62  43 VRB5      29.96F
OMAHA          MOSUNNY   88  62  41 NW10      29.89F
SIOUX FALLS    PTSUNNY   79  65  62 SW7       29.89F
PIERRE         SUNNY     83  49  30 N13G26    29.94F
RAPID CITY     SUNNY     86  41  20 CALM      30.02S
BISMARCK       SUNNY     83  53  35 NW10G18   29.94F
KANSAS CITY    MOSUNNY   88  68  51 SW8       29.91F HX  91
HILL CITY      SUNNY     90  60  36 N10       29.99F
WICHITA        SUNNY     92  63  38 CALM      29.94F HX  93
DODGE CITY     SUNNY     91  61  36 W9G17     30.00F HX  91
OKLAHOMA CITY  MOSUNNY   90  69  50 S10       29.97F HX  94
DALLAS         LGT RAIN  83  73  72 S9        29.97F
AMARILLO       SUNNY     87  66  49 SW10      30.10F
$$




USA.gov is the U.S. government's official web portal to all federal, state and local government web resources and services.